Location: Shenandoah County Park
(38.9356°N, 78.4524°W)
Time: 18:05:32
(UTC-04:00)

BlueWalker 3 - Pass Details

Date: 18 September 2024
Orbit: 473 x 485 km, 53.2° (Epoch: 05 October)

Event Time Altitude Azimuth Distance (km) Brightness Sun altitude
Rises 20:07:12 0° 294° (WNW) 2,540 7.3 -10.7°
Reaches altitude 10° 20:09:59 10° 273° (W) 1,660 6.1 -11.2°
Maximum altitude 20:12:20 16° 233° (SW) 1,326 4.6 -11.6°
Drops below altitude 10° 20:14:42 10° 194° (SSW) 1,658 4.6 -12.1°
Sets 20:17:29 0° 172° (S) 2,536 5.3 -12.6°
